Flag for Moldova Weather past 2 weeks in Bălți, Moldova

Now
34 °F

Clear.


Feels Like: 24 °F
Forecast: 31 / 44 °F
Wind: 15 mph from South

Location: Baltsi-Leadoveni - The North of Moldova

Current Time: Jan 30, 2015 at 12:39:32 AM

Latest Report: Jan 30, 2015 at 12:00 AM


Visibility: 6 mi

Pressure: 29.50 "Hg

Humidity: 93%

Dew point: 32 °F

Location of BălțiLocation

Historic Weather in Bălți — Graph

°F

Bălți temperature yesterday

Maximum temperature yesterday: 36 °F (at 3:00 PM)
Minimum temperature yesterday: 28 °F (at 3:00 AM)
Average temperature yesterday: 32 °F

Past Weeks' High & Low Weather Summary

 TemperatureHumidityPressure
High45 °F (Jan 23, 1:00 PM)100% (Jan 15, 8:00 PM)30.24 "Hg (Jan 15, 8:00 PM)
Low27 °F (Jan 15, 6:00 AM)81% (Jan 27, 1:00 PM)29.53 "Hg (Jan 29, 11:00 PM)
Average33 °F97%30.03 "Hg
* Reported Jan 14 11:00 PM — Jan 29 11:00 PM, Bălți, Weather by CustomWeather, © 2014

Note: Actual official high and low records may vary slightly from our data, if they occured in-between our weather recording intervals... More about our weather records

Advertising

Bălți weather history for previous 24 hours

 ConditionsComfort  
Time TempWeatherWind HumidityBarometerVisibility
11:00 PM
Jan 29
34 °FClear.15 mph93%29.53 "HgN/A
10:00 PM34 °FClear.14 mph93%29.56 "HgN/A
9:00 PM36 °FClear.15 mph87%29.56 "HgN/A
8:30 PM36 °FClear.10 mph93%29.56 "HgN/A
8:00 PM36 °FClear.10 mph93%29.56 "HgN/A
7:00 PM36 °FClear.15 mph93%29.56 "HgN/A
6:00 PM36 °FClear.12 mph100%29.59 "HgN/A
5:30 PM36 °FClear.9 mph100%29.62 "Hg6 mi
5:00 PM36 °FClear.12 mph93%29.62 "HgN/A
4:00 PM36 °FLow clouds.18 mph93%29.62 "Hg4 mi
3:30 PM36 °FLow clouds.16 mph93%29.62 "Hg4 mi
3:00 PM36 °FLow clouds.17 mph93%29.62 "Hg4 mi
2:00 PM34 °FLow clouds.16 mph100%29.65 "Hg4 mi
1:00 PM34 °FLow clouds.18 mph100%29.68 "Hg4 mi
12:00 PM34 °FLow clouds.14 mph100%29.68 "Hg4 mi
11:30 AM32 °FIce fog.8 mph100%29.71 "Hg1 mi
11:00 AM32 °FIce fog.12 mph100%29.71 "Hg0 mi
10:00 AM30 °FIce fog.15 mph100%29.74 "Hg0 mi
9:00 AM30 °FIce fog.16 mph100%29.74 "Hg0 mi
8:00 AM30 °FChilly.16 mph100%29.74 "Hg0 mi
7:30 AM30 °FChilly.14 mph100%29.74 "Hg0 mi
7:00 AM30 °FChilly.12 mph100%29.77 "Hg0 mi
6:00 AM30 °FChilly.14 mph100%29.77 "Hg0 mi
5:00 AM30 °FChilly.12 mph93%29.77 "Hg0 mi
4:00 AM28 °FChilly.9 mph100%29.80 "Hg0 mi
3:30 AM28 °FChilly.8 mph100%29.80 "Hg0 mi
3:00 AM28 °FChilly.7 mph100%29.83 "Hg0 mi
2:00 AM30 °FChilly.6 mph93%29.83 "Hg2 mi
1:30 AM30 °FChilly.5 mph93%29.83 "Hg3 mi
1:00 AM30 °FChilly.5 mph93%29.86 "Hg3 mi
12:00 AM30 °FChilly.5 mph93%29.86 "Hg3 mi
Weather by CustomWeather, © 2014

See weather overviewHow to use our weather pages